Location: *
(51.5667°S, 179.6500°W)
Time: 04:09:08
(UTC+00:00)

Daily predictions for brighter satellites

Satellite Brightness Start Highest point End
(mag) Time Altitude Azimuth Time Altitude Azimuth Time Altitude Azimuth
SL-16 R/B 4.1 04:35:53 10° WSW 04:39:55 19° SSW 04:43:59 10° SSE
[s.n.52706] 3.6 04:37:24 10° NW 04:40:10 40° NNE 04:42:58 10° E
[s.n.52701] 3.6 04:37:30 10° NW 04:40:17 40° NNE 04:43:05 10° E
[s.n.52704] 3.6 04:37:37 10° NW 04:40:24 40° NNE 04:43:12 10° E
[s.n.52699] 3.6 04:37:43 10° NW 04:40:30 41° NNE 04:43:18 10° E
[s.n.52702] 3.6 04:37:50 10° NW 04:40:37 41° NNE 04:43:26 10° E
[s.n.52697] 3.6 04:37:57 10° NW 04:40:44 41° NNE 04:43:33 10° E
[s.n.52700] 3.6 04:38:03 10° NW 04:40:50 41° NNE 04:43:39 10° E
[s.n.52695] 3.6 04:38:10 10° NW 04:40:57 41° NNE 04:43:46 10° E
[s.n.52698] 3.6 04:38:17 10° NW 04:41:04 41° NNE 04:43:53 10° E
[s.n.52693] 3.5 04:38:24 10° NW 04:41:11 41° NNE 04:44:00 10° E
[s.n.52696] 3.5 04:38:31 10° NW 04:41:18 41° NNE 04:44:07 10° E
[s.n.52691] 3.5 04:38:37 10° NW 04:41:24 41° NNE 04:44:13 10° E
[s.n.52689] 3.5 04:38:43 10° NW 04:41:31 41° NNE 04:44:20 10° E
[s.n.52694] 3.5 04:38:50 10° NW 04:41:38 41° NNE 04:44:27 10° E
[s.n.52692] 3.5 04:38:57 10° NW 04:41:45 41° NNE 04:44:34 10° E
Cosmos 1980 Rocket 3.0 04:36:52 10° SSW 04:41:51 30° SE 04:46:46 10° ENE
[s.n.52687] 3.5 04:39:03 10° NW 04:41:52 41° NNE 04:44:41 10° E
[s.n.52685] 3.5 04:39:11 10° NW 04:41:58 42° NNE 04:44:47 10° E
[s.n.52690] 3.5 04:39:17 10° NW 04:42:05 42° NNE 04:44:54 10° E
[s.n.52688] 3.5 04:39:23 10° NW 04:42:12 42° NNE 04:45:01 10° E
[s.n.52683] 3.5 04:39:30 10° NW 04:42:19 42° NNE 04:45:08 10° E
[s.n.52686] 3.5 04:39:38 10° NW 04:42:26 42° NNE 04:45:15 10° E
[s.n.52681] 3.5 04:39:45 10° NW 04:42:33 42° NNE 04:45:22 10° E
[s.n.52679] 3.5 04:39:51 10° NW 04:42:39 42° NNE 04:45:29 10° E
[s.n.52684] 3.5 04:39:58 10° NW 04:42:47 42° NNE 04:45:36 10° E
[s.n.52682] 3.5 04:40:05 10° NW 04:42:53 42° NNE 04:45:43 10° E
[s.n.52677] 3.5 04:40:12 10° NW 04:43:00 42° NNE 04:45:50 10° E
[s.n.52680] 3.5 04:40:19 10° NW 04:43:07 42° NNE 04:45:57 10° E
[s.n.52675] 3.5 04:40:25 10° NW 04:43:15 42° NNE 04:46:04 10° E
Cosmos 1842 Rocket 4.3 04:39:14 10° S 04:43:18 31° ESE 04:47:18 10° NE
[s.n.52678] 3.5 04:40:32 10° NW 04:43:21 42° NNE 04:46:11 10° E
[s.n.52673] 3.5 04:40:40 10° NW 04:43:29 43° NNE 04:46:19 10° E
[s.n.52676] 3.5 04:40:47 10° NW 04:43:35 43° NNE 04:46:25 10° E
[s.n.52671] 3.5 04:40:54 10° NW 04:43:42 43° NNE 04:46:33 10° E
[s.n.52669] 3.5 04:41:01 10° NW 04:43:49 43° NNE 04:46:40 10° E
[s.n.52674] 3.5 04:41:08 10° NW 04:43:56 43° NNE 04:46:47 10° E
USA 215 3.3 04:37:20 10° ENE 04:43:57 82° SSE 04:50:37 10° WSW
[s.n.52672] 3.5 04:41:14 10° NW 04:44:02 43° NNE 04:46:52 10° E
[s.n.52667] 3.5 04:41:21 10° NW 04:44:10 43° NNE 04:47:00 10° E
[s.n.52665] 3.5 04:41:28 10° NW 04:44:18 43° NNE 04:47:08 10° E
[s.n.52670] 3.5 04:41:35 10° NW 04:44:24 43° NNE 04:47:15 10° E
[s.n.52668] 3.5 04:41:43 10° NW 04:44:31 43° NNE 04:47:22 10° E
[s.n.52666] 3.5 04:41:50 10° NW 04:44:39 43° NNE 04:47:29 10° ESE
[s.n.52663] 3.5 04:41:57 10° NW 04:44:46 43° NNE 04:47:36 10° ESE
[s.n.52662] 3.5 04:42:03 10° NW 04:44:53 44° NNE 04:47:43 10° ESE
[s.n.52664] 3.5 04:42:10 10° NW 04:44:59 44° NNE 04:47:51 10° ESE
[s.n.52661] 3.5 04:42:18 10° NW 04:45:07 44° NNE 04:47:58 10° ESE
[s.n.52660] 3.5 04:42:25 10° NW 04:45:14 44° NNE 04:48:05 10° ESE
[s.n.52656] 3.4 04:42:31 10° NW 04:45:22 44° NNE 04:48:12 10° ESE
[s.n.52658] 3.4 04:42:39 10° NW 04:45:29 44° NNE 04:48:19 10° ESE
[s.n.52659] 3.4 04:42:46 10° NW 04:45:35 44° NNE 04:48:27 10° ESE
[s.n.52657] 3.4 04:42:54 10° NW 04:45:43 44° NNE 04:48:35 10° ESE
CZ-4B R/B 3.4 04:41:36 10° SSE 04:46:36 75° ENE 04:51:25 10° N
APEX 3.3 04:44:26 10° NW 04:47:10 48° SW 04:50:15 10° SSE
Cosmos 2322 Rocket 3.9 04:44:57 10° S 04:48:09 15° SSE 04:51:19 10° ESE
H-2A R/B 2.8 04:44:43 10° SSE 04:48:35 61° E 04:52:25 10° N
SKYMED 2 3.6 04:44:36 10° NNE 04:48:58 66° ESE 04:53:23 10° S
COSMOS 2455 4.2 04:44:04 10° W 04:49:24 31° SSW 04:54:46 10° SSE
Cosmos 2333 Rocket 4.2 04:47:30 10° SSW 04:49:30 12° S 04:51:29 10° SSE
Cosmos 2369 4.3 04:44:47 10° SSW 04:50:06 36° SE 04:55:22 10° ENE
Cosmos 1339 Rocket 4.5 04:44:12 10° N 04:50:17 78° E 04:56:29 10° SSE
Spot 4 Rocket 4.4 04:45:26 10° SSE 04:50:40 71° WSW 04:55:51 10° NNW
SJ 16-02 3.3 04:49:57 10° SSE 04:51:06 11° SE 04:52:15 10° SE
Landsat 4 3.7 04:48:25 10° SSE 04:52:16 89° E 04:56:06 10° NNW
Cosmos 1110 Rocket 4.3 04:47:19 10° N 04:52:31 55° ENE 04:57:46 10° SSE
SJ-12 4.2 04:49:00 10° SSE 04:53:07 50° E 04:57:12 10° N
Cosmos 1825 Rocket 3.6 04:49:48 10° N 04:54:12 76° E 04:58:43 10° SSE
USA 308 2.9 04:50:08 10° WSW 04:54:23 69° S 04:58:37 10° E
Cosmos 2221 2.8 04:50:33 10° S 04:54:55 48° ESE 04:59:13 10° NNE
Cosmos 1340 Rocket 4.0 04:51:57 10° NE 04:55:13 24° E 04:58:32 10° SE
Cosmos 2082 Rocket 3.9 04:53:46 10° ENE 04:56:22 13° E 04:58:59 10° ESE
Cosmos 1605 Rocket 4.1 04:51:40 10° S 04:58:08 88° E 05:04:25 10° N
Cosmos 1697 Rocket 2.8 04:55:46 10° SSW 05:01:26 61° SE 05:07:05 10° NE
ALOS 4.3 04:58:17 10° S 05:02:07 25° WSW 05:05:56 10° WNW
YAOGAN 6 3.1 04:59:16 10° S 05:02:53 63° WSW 05:06:24 10° NNW
Cosmos 2360 4.3 04:58:59 10° SSW 05:04:44 62° SE 05:10:25 10° NE
CZ-2C R/B 4.4 05:01:24 10° S 05:05:12 25° WSW 05:09:02 10° WNW
GENESIS II 4.5 05:01:38 10° SW 05:05:18 43° SE 05:08:54 10° ENE
H-2A R/B 4.0 05:04:51 11° SE 05:05:18 11° SE 05:06:37 10° SSE
Cosmos 1331 Rocket 4.1 05:00:41 10° N 05:05:52 63° ENE 05:11:05 10° SSE
Meteor 1-31 Rocket 3.3 05:05:56 10° SSE 05:09:44 40° E 05:13:29 10° NNE
CZ-2C R/B 2.9 05:06:04 10° SSE 05:10:53 67° ENE 05:15:45 10° N
Cosmos 2219 Rocket 4.2 05:10:17 10° S 05:12:08 11° S 05:13:58 10° SSE
Cosmos 1939 Rocket 3.7 05:13:47 10° SSE 05:17:15 29° E 05:20:40 10° NNE
Lacrosse 5 2.4 05:12:38 10° WSW 05:17:36 46° S 05:21:34 15° ESE
USA 305 2.8 05:13:33 10° WSW 05:17:49 84° SSE 05:21:57 11° ENE
Cosmos 1933 3.8 05:14:06 10° S 05:18:00 40° ESE 05:21:52 10° NE
CZ-2C R/B 4.0 05:15:25 10° S 05:19:22 46° WSW 05:23:16 10° NW
Cosmos 2058 3.2 05:15:56 10° NNW 05:20:09 72° WSW 05:24:24 10° S
Cosmos 1782 3.4 05:16:54 10° S 05:20:36 33° ESE 05:24:15 10° NE
CZ-4B R/B 4.1 05:21:58 10° SSE 05:26:31 64° ENE 05:30:53 10° N
SL-16 R/B 3.4 05:23:39 10° SSW 05:28:13 24° SE 05:30:51 17° ESE
COSMOS 2406 4.0 05:23:23 10° NNE 05:28:23 32° ENE 05:32:10 16° SE
Cosmos 2173 Rocket 4.1 05:23:11 10° S 05:29:36 62° ESE 05:35:51 10° NNE
DMSP B5D2-2 4.3 05:24:47 10° NNE 05:30:04 79° WNW 05:35:25 10° SSW
Lacrosse 5 rocket 2.1 05:27:20 10° WSW 05:31:15 37° S 05:33:30 20° SE
Cosmos 2016 Rocket 4.3 05:25:20 10° S 05:31:18 44° ESE 05:37:16 10° NE
CZ-4B R/B 3.9 05:33:56 21° E 05:34:18 22° E 05:37:16 10° NE
SeaSat 1 3.7 05:30:10 10° SSE 05:34:47 39° SW 05:39:22 10° WNW
Cosmos 1607 4.1 05:29:52 10° NNW 05:36:03 63° NE 05:41:09 16° SE
Lacrosse 4 Rocket 2.5 05:32:56 10° WNW 05:37:02 42° SW 05:40:59 11° SSE
COSMO-SKYMED 1 3.9 05:32:55 10° N 05:37:08 45° W 05:41:25 10° SSW
Cosmos 1727 Rocket 4.0 05:31:04 10° N 05:37:19 79° E 05:43:37 10° SSE
Cosmos 1452 Rocket 4.4 05:32:26 10° NW 05:37:34 49° WSW 05:42:46 10° SSE
Cosmos 2237 Rocket 4.4 05:38:20 10° S 05:39:16 10° S 05:40:11 10° S
Cosmos 1503 Rocket 4.4 05:36:30 10° SSW 05:41:26 39° SE 05:46:19 10° NE
Envisat 4.2 05:37:35 10° S 05:42:26 42° WSW 05:47:15 10° NW
Cosmos 1802 Rocket 4.1 05:36:22 10° S 05:42:48 61° ESE 05:49:12 10° NNE
Orbus 7S? 3.5 05:38:44 10° WSW 05:43:36 49° SSE 05:44:48 30° ESE
NOAA 12 4.2 05:39:40 10° SSE 05:44:59 56° E 05:50:12 10° N
Cosmos 968 Rocket 3.9 05:40:46 10° SSW 05:46:05 70° WNW 05:51:21 10° NNE
Meteor 2-3 Rocket 3.7 05:43:34 10° N 05:49:08 63° E 05:54:48 10° SSE
Cosmos 2278 3.9 05:43:44 10° SSW 05:49:19 49° SE 05:54:46 10° NE
ATLAS 2AS CENTAUR R/B 3.4 05:43:21 10° SW 05:50:13 59° NW 05:57:31 10° NNE
Cosmos 1833 Rocket 2.7 05:46:02 10° NNW 05:51:41 71° ENE 05:56:14 16° SE
H-2A R/B 2.5 05:48:40 16° SE 05:52:12 36° E 05:56:45 10° NNE
Cosmos 2360 Rocket 3.5 05:49:48 10° SSW 05:53:57 20° SSE 05:54:40 20° SE
Cosmos 2151 3.1 05:50:17 10° N 05:54:32 55° E 05:58:16 14° SSE
ADEOS 3.7 05:49:44 10° SSE 05:54:59 56° ENE 06:00:09 10° N
ERBS 2.5 05:52:50 10° SW 05:55:54 43° SSE 05:56:13 41° SE
Cosmos 1459 Rocket 3.9 05:50:40 10° S 05:56:55 88° E 06:03:11 10° N
RESURS DK-1 2.3 05:53:05 10° SSW 05:57:17 62° SE 06:00:20 18° NE
USA 306 3.1 05:55:36 10° WSW 05:59:49 69° NNW 06:02:20 23° NE
SJ-7 4.4 05:56:07 10° SSE 06:00:22 88° ENE 06:04:30 10° NNW
Cosmos 2100 Rocket 4.1 05:54:17 10° SSW 06:00:43 82° W 06:06:58 10° N
USA 307 3.0 05:59:10 10° WSW 06:03:24 73° NNW 06:05:36 27° NE
Meteor 1-26 Rocket 4.4 05:59:51 10° SSW 06:06:00 85° W 06:12:04 10° N
CZ-2D R/B 3.8 06:06:28 37° ENE 06:06:28 37° ENE 06:09:39 10° NNE
Meteor 2-6 Rocket 4.3 06:01:28 10° S 06:07:05 52° ESE 06:12:28 10° NNE
Landsat 5 4.0 06:05:20 10° N 06:09:47 66° WNW 06:14:12 10° SSW
USA 281 3.5 06:05:45 20° SE 06:10:07 46° ENE 06:16:27 10° N
Aureole 1 Rocket 4.2 06:02:26 10° SSW 06:10:17 89° WNW 06:16:25 10° NNE
Cosmos 1867 4.5 06:09:18 10° SW 06:14:03 30° SSE 06:14:48 29° SE
CZ-4C R/B 2.7 06:10:56 10° NNE 06:14:12 88° ESE 06:17:34 10° SSW
[s.n.52708] 2.9 06:11:36 10° W 06:14:19 64° SW 06:14:19 64° SW
[s.n.52707] 2.9 06:11:42 10° W 06:14:25 64° SW 06:14:25 64° SW
[s.n.52703] 3.0 06:11:49 10° W 06:14:32 63° SW 06:14:32 63° SW
[s.n.52705] 3.0 06:11:57 10° W 06:14:39 63° SW 06:14:39 63° SW
[s.n.52706] 3.0 06:12:03 10° W 06:14:45 63° SW 06:14:45 63° SW
[s.n.52701] 3.0 06:12:10 10° W 06:14:52 63° SW 06:14:52 63° SW
[s.n.52704] 3.0 06:12:16 10° W 06:14:58 63° SW 06:14:58 63° SW
[s.n.52699] 3.0 06:12:23 10° W 06:15:05 63° SW 06:15:05 63° SW
[s.n.52702] 3.0 06:12:30 10° W 06:15:11 62° SW 06:15:11 62° SW
[s.n.52697] 3.0 06:12:37 10° W 06:15:18 62° SW 06:15:18 62° SW
[s.n.52700] 3.0 06:12:43 10° W 06:15:24 62° SW 06:15:24 62° SW
[s.n.52695] 3.0 06:12:51 10° W 06:15:31 62° SW 06:15:31 62° SW
Cosmos 1151 Rocket 3.4 06:11:31 10° S 06:15:19 42° SE 06:15:19 42° SE
[s.n.52698] 3.0 06:12:57 10° W 06:15:38 62° SW 06:15:38 62° SW
[s.n.52693] 3.0 06:13:04 10° W 06:15:45 62° SW 06:15:45 62° SW
[s.n.52696] 3.0 06:13:11 10° W 06:15:51 61° SW 06:15:51 61° SW
[s.n.52691] 3.0 06:13:18 10° W 06:15:58 61° SW 06:15:58 61° SW
[s.n.52689] 3.0 06:13:24 10° W 06:16:04 61° SW 06:16:04 61° SW
[s.n.52694] 3.0 06:13:31 10° W 06:16:11 61° SW 06:16:11 61° SW
[s.n.52692] 3.1 06:13:38 10° W 06:16:18 61° SW 06:16:18 61° SW
[s.n.52687] 3.1 06:13:45 10° W 06:16:24 60° SW 06:16:24 60° SW
[s.n.52685] 3.1 06:13:52 10° W 06:16:31 61° SW 06:16:31 61° SW
[s.n.52690] 3.1 06:13:59 10° W 06:16:37 60° SW 06:16:37 60° SW
[s.n.52688] 3.1 06:14:06 10° W 06:16:44 60° SW 06:16:44 60° SW
[s.n.52683] 3.1 06:14:13 10° W 06:16:51 60° SW 06:16:51 60° SW
[s.n.52686] 3.1 06:14:20 10° W 06:16:58 60° SW 06:16:58 60° SW
[s.n.52681] 3.1 06:14:27 10° W 06:17:05 59° SW 06:17:05 59° SW
[s.n.52679] 3.1 06:14:34 10° W 06:17:11 59° SW 06:17:11 59° SW
[s.n.52684] 3.1 06:14:41 10° W 06:17:18 59° SW 06:17:18 59° SW
[s.n.52682] 3.1 06:14:48 10° W 06:17:24 59° SW 06:17:24 59° SW
[s.n.52677] 3.1 06:14:55 10° W 06:17:31 59° SW 06:17:31 59° SW
[s.n.52680] 3.1 06:15:03 10° W 06:17:38 59° SW 06:17:38 59° SW
[s.n.52675] 3.1 06:15:09 10° W 06:17:45 58° SW 06:17:45 58° SW
[s.n.52678] 3.1 06:15:16 10° W 06:17:52 58° SW 06:17:52 58° SW
[s.n.52673] 3.2 06:15:24 10° W 06:17:59 58° SW 06:17:59 58° SW
[s.n.52676] 3.2 06:15:30 10° W 06:18:06 58° SW 06:18:06 58° SW
[s.n.52671] 3.2 06:15:38 10° W 06:18:13 58° SW 06:18:13 58° SW
Cosmos 1812 2.7 06:14:40 10° SSW 06:18:36 83° W 06:22:28 10° N
[s.n.52669] 3.2 06:15:44 10° W 06:18:19 57° SW 06:18:19 57° SW
[s.n.52674] 3.2 06:15:52 10° W 06:18:26 57° SW 06:18:26 57° SW
[s.n.52672] 3.2 06:15:58 10° W 06:18:33 57° SW 06:18:33 57° SW
[s.n.52667] 3.2 06:16:06 10° W 06:18:40 57° SW 06:18:40 57° SW
[s.n.52665] 3.2 06:16:13 10° W 06:18:47 57° SW 06:18:47 57° SW
[s.n.52670] 3.2 06:16:20 10° W 06:18:54 57° SW 06:18:54 57° SW
[s.n.52668] 3.2 06:16:27 10° W 06:19:01 56° WSW 06:19:01 56° WSW
[s.n.52666] 3.2 06:16:35 10° W 06:19:08 56° SW 06:19:08 56° SW
[s.n.52663] 3.2 06:16:41 10° W 06:19:15 56° WSW 06:19:15 56° WSW
[s.n.52662] 3.2 06:16:49 10° W 06:19:21 56° WSW 06:19:21 56° WSW
[s.n.52664] 3.2 06:16:57 10° W 06:19:29 56° WSW 06:19:29 56° WSW
[s.n.52661] 3.3 06:17:03 10° W 06:19:36 56° WSW 06:19:36 56° WSW
[s.n.52660] 3.3 06:17:11 10° W 06:19:43 55° WSW 06:19:43 55° WSW
[s.n.52656] 3.3 06:17:17 10° W 06:19:49 55° WSW 06:19:49 55° WSW
[s.n.52658] 3.3 06:17:25 10° W 06:19:57 55° WSW 06:19:57 55° WSW
[s.n.52659] 3.3 06:17:32 10° W 06:20:03 55° WSW 06:20:03 55° WSW
Cosmos 2061 Rocket 3.9 06:14:04 10° S 06:20:35 80° E 06:26:57 10° NNE
[s.n.52657] 3.3 06:17:40 10° W 06:20:11 55° WSW 06:20:11 55° WSW
Meteor PRIRODA 3.5 06:22:10 51° SSE 06:23:03 85° ENE 06:26:47 10° NNW
Cosmos 1076 Rocket 4.0 06:18:47 10° NNW 06:23:08 61° WSW 06:27:32 10° S
Cosmos 1980 Rocket 2.5 06:20:42 10° SW 06:26:21 69° WNW 06:31:55 10° NNE
SL-16 R/B 4.5 06:25:17 10° SSW 06:26:34 11° S 06:27:51 10° S
ARGOS 3.5 06:27:22 42° ENE 06:27:22 42° ENE 06:32:20 10° NNE
USA 215 4.3 06:21:02 10° NNE 06:27:19 45° NW 06:33:38 10° WSW
NOAA 6 4.0 06:27:39 38° SE 06:29:24 57° E 06:34:28 10° N
SJ 16-02 1.9 06:26:24 10° SSW 06:29:54 43° SSE 06:29:54 43° SSE
Cosmos 1340 Rocket 4.2 06:27:36 10° NW 06:31:25 38° WSW 06:35:19 10° S
Cosmos 1725 Rocket 4.0 06:26:04 10° S 06:32:24 84° W 06:38:42 10° N
Cosmos 2123 Rocket 3.9 06:26:06 10° N 06:32:28 82° E 06:38:55 10° SSE
FengYun 1-2 T 4.4 06:27:22 10° SSE 06:33:00 75° WSW 06:38:33 10° NNW
Cosmos 2322 Rocket 2.7 06:28:29 10° SSW 06:33:47 40° SE 06:33:47 40° SE
USA 308 3.5 06:29:51 10° WSW 06:33:59 51° NNW 06:35:04 40° NNE
SMAP 3.0 06:31:55 28° SSE 06:34:26 84° ENE 06:39:09 10° NNW
Cosmos 2369 4.4 06:28:57 10° SW 06:34:32 54° WNW 06:40:04 10° N
Cosmos 2333 Rocket 3.6 06:31:32 10° SSW 06:35:14 22° SSE 06:35:14 22° SSE
Cosmos 2082 Rocket 2.1 06:33:49 10° NNW 06:39:26 72° ENE 06:40:57 49° SE
H-2A R/B 3.0 06:41:54 37° S 06:41:54 37° S 06:44:47 10° S
AQUARIUS 4.1 06:41:53 54° SSE 06:42:56 87° ENE 06:47:29 10° NNW
Cosmos 1777 Rocket 3.9 06:43:08 10° SSW 06:48:25 68° ESE 06:48:25 68° ESE
Cosmos 1354 Rocket 4.0 06:43:11 10° SSW 06:48:32 84° WNW 06:50:58 33° NNE
Radarsat 4.5 06:48:03 30° SSE 06:50:46 89° WSW 06:56:02 10° NNW
Cosmos 1900 4.5 06:50:11 10° SW 06:54:23 59° S 06:54:23 59° S
Radarsat Rocket 4.4 06:51:28 20° SSE 06:56:47 68° ENE 07:04:43 10° N
USA 305 4.2 06:53:19 10° WSW 06:57:09 33° NW 06:57:42 32° NNW
Cosmos 967 Rocket 4.4 06:51:20 10° NNW 06:57:28 60° ENE 06:57:32 60° ENE
Cosmos 2219 Rocket 3.8 06:53:45 10° SSW 06:56:35 21° S 06:56:35 21° S
Lacrosse 5 2.1 06:56:04 10° WSW 07:00:46 61° S 07:00:46 61° S
IRAS Rocket 4.1 07:02:24 76° E 07:02:37 77° ESE 07:08:17 10° SSW
CORIOLIS 4.3 07:00:29 24° S 07:03:57 73° WSW 07:09:25 10° NNW
Cosmos 1992 Rocket 4.3 06:58:59 10° NW 07:04:13 65° WSW 07:05:35 47° S
CZ-4B R/B 4.2 07:09:56 35° W 07:09:56 35° W 07:12:57 10° NW
Lacrosse 5 rocket 3.0 07:06:54 10° WSW 07:09:02 28° SW 07:09:02 28° SW
Meteor 1-10 Rocket 4.3 07:06:39 10° SSW 07:12:28 75° W 07:15:25 30° N
COSMOS 2406 3.8 07:06:52 10° NW 07:12:28 54° SW 07:14:16 39° S
SL-16 R/B 2.2 07:07:26 10° SSW 07:12:45 76° S 07:12:45 76° S
Lacrosse 4 Rocket 4.0 07:14:31 10° SW 07:16:51 14° SSW 07:17:14 14° SSW
Meteor 1-27 Rocket 4.4 07:16:30 10° SSW 07:20:15 44° S 07:20:15 44° S
Cosmos 2237 Rocket 4.4 07:22:31 10° SSW 07:23:51 13° S 07:23:51 13° S
H-2A R/B 3.3 07:29:17 24° SSW 07:31:39 37° WSW 07:36:11 10° NW
Cosmos 1833 Rocket 4.3 07:31:11 10° WNW 07:36:08 30° SW 07:37:56 25° S
Cosmos 2360 Rocket 3.4 07:33:22 10° SSW 07:36:27 33° SSW 07:36:27 33° SSW
USA 281 3.9 07:52:38 38° S 07:54:40 50° SW 08:01:00 10° WNW
SJ 16-02 4.1 08:05:33 10° SW 08:06:55 16° WSW 08:06:55 16° WSW
Cosmos 2322 Rocket 3.9 08:12:35 10° SW 08:15:37 30° SW 08:15:37 30° SW
Cosmos 2333 Rocket 4.3 08:15:30 10° SSW 08:17:14 20° SSW 08:17:14 20° SSW
Cosmos 2082 Rocket 4.0 08:19:11 10° WNW 08:22:50 27° WSW 08:22:50 27° WSW
